FENGYUN 1C DEB

Satellite information

Favourite Embed

Satellite Type and Status

DEBRISIN ORBIT

Key statistics

Satellite FENGYUN 1C DEB at a glance.

Uptime

9616

Days in orbit

Revolutions

≈ 14.2

Per day

Orbit

SSO

Sun Synchronous Orbit

Inclination

98.6

Latest

Satellite identification and parameters

Extended collection of information and parameters for FENGYUN 1C DEB.

Object identification

Identified? True

Debris? True

Object name: FENGYUN 1C DEB

International designator: 1999-025BAC

Object number (NORAD): 30938

Object ID (CCSDS): 30938

Country: PEOPLES REPUBLIC OF CHINA (PRC)

Current information (Y/N): Y

RCS size: SMALL

Orbital parameters

Period: 101.436 minutes

Inclination: 98.5981 deg

SMA: 7204.778 km

Apoapsis: 859.133 km

Periapsis: 794.154 km

RAAN: 263.4518 deg

Eccentricy: 0.00450946

Argument of periapsis: 270.608 deg

Mean anomaly: 151.9854 deg

Mean motion: 14.19619035 rev/day

Mean motion (dot): 0.00000967 rev/day2

B* drag term: 0.00047332028 1/REarth

Two-line elements (TLE)

Creation date: Sept. 4, 2025, 10:13 a.m.

Reference frame: TEME

Reference center: EARTH

Epoch: Sept. 4, 2025, 1:20 a.m. UTC

TLE line 0: 0 FENGYUN 1C DEB

TLE line 1: 1 30938U 99025BAC 25247.05569367 .00000967 00000-0 47332-3 0 9993

TLE line 2: 2 30938 98.5981 263.4518 0045095 270.6080 151.9854 14.19619035957058

Live tracking on map

Real-time ground track for satellite FENGYUN 1C DEB.

In-orbit conjunctions

A list of the most updated potential collisions computed for object FENGYUN 1C DEB.

Target Orbit TCA Probability of collision Miss distance Type
SL-16 R/B LEO 2025-06-16 03:56:07 0.0001223156 961.0 (m) ROCKET BODY
METEOR 2-8 DEB LEO 2025-04-01 11:55:58 0.0001084475 101.0 (m) DEBRIS
DELTA 1 DEB SSO 2025-03-10 02:47:06 0.0001444727 342.0 (m) DEBRIS
CZ-6A DEB LEO 2024-11-11 07:44:49 0.0002629584 763.0 (m) DEBRIS
METEOR 2-5 DEB LEO 2024-09-23 06:20:47 0.0005503923 25.0 (m) DEBRIS

Associated space launch

Chinese polar orbiting meteorological satellite

FENGYUN 1C DEB was lifted into orbit during the mission ‘Long March 4B | Feng Yun 1C’, on board a Long March 4B space rocket.

The launch took place on May 10, 1999, 1:33 a.m. from Launch Complex 7.

For more information about the launch, click the button.

Launch to space Long March 4B | Feng Yun 1C
Long March 4B | Feng Yun 1C

Agency: N/A

Status: Launch Successful

Launch date: May 10, 1999, 1:33 a.m. UTC

Rocket: Long March 4B

Launch pad: Launch Complex 7

Location: Taiyuan Satellite Launch Center, People's Republic of China

...

Latest news about this satellite

There are no fresh news available about this satellite. Check back as we update our databases every day.


Newsletter sign-up

Weekly statistics, charts and insights to help you stay on top of the space industry.